THY8DB LTFM-HECA

Flight info

Callsign THY8DB
Flight time 1h 46m
Altitude 37000
Route RATVU1E/36 RATVU UT35 AYT UM855 TOMBI M855 RASDA A16 CVO
Aircraft A320/M-SDE3FGHIRWY/LB1

Departure

Time 2026-05-06 13:03
Airport İstanbul Airport (LTFM)

Arrival

Time 2026-05-06 14:49
Airport Cairo International Airport (HECA)
Time Latitude Longitude Altitude Speed Heading
2026-05-06 12:39 41.26602 28.74993 334 ft 0 kts 290°
2026-05-06 12:51 41.26598 28.75010 334 ft 0 kts 290°
2026-05-06 12:53 41.26597 28.75012 334 ft 2 kts 290°
2026-05-06 12:53 41.26589 28.75045 334 ft 4 kts 284°
2026-05-06 12:54 41.26584 28.75080 330 ft 4 kts 274°
2026-05-06 12:54 41.26586 28.75114 334 ft 4 kts 244°
2026-05-06 12:54 41.26596 28.75131 334 ft 0 kts 197°
2026-05-06 12:59 41.26594 28.75130 334 ft 1 kts 198°
2026-05-06 12:59 41.26577 28.75123 332 ft 4 kts 198°
2026-05-06 13:00 41.26544 28.75108 334 ft 6 kts 199°
2026-05-06 13:00 41.26497 28.75091 331 ft 8 kts 193°
2026-05-06 13:00 41.26436 28.75068 331 ft 10 kts 197°
2026-05-06 13:00 41.26364 28.75037 333 ft 12 kts 198°
2026-05-06 13:01 41.26280 28.75011 333 ft 13 kts 172°
2026-05-06 13:01 41.26245 28.75117 334 ft 15 kts 85°
2026-05-06 13:01 41.26245 28.75258 334 ft 16 kts 91°
2026-05-06 13:01 41.26246 28.75418 330 ft 18 kts 89°
2026-05-06 13:02 41.26249 28.75592 334 ft 17 kts 88°
2026-05-06 13:02 41.26331 28.75664 331 ft 13 kts
2026-05-06 13:02 41.26338 28.75665 334 ft 0 kts
2026-05-06 13:02 41.26440 28.75664 333 ft 45 kts 359°
2026-05-06 13:03 41.26980 28.75653 333 ft 107 kts 359°
2026-05-06 13:03 41.27892 28.75631 336 ft 153 kts 359°
2026-05-06 13:03 41.29033 28.75546 632 ft 171 kts 354°
2026-05-06 13:03 41.30211 28.75526 1211 ft 171 kts 21°
2026-05-06 13:04 41.31145 28.76438 1913 ft 169 kts 44°
2026-05-06 13:04 41.32011 28.77579 2278 ft 185 kts 39°
2026-05-06 13:04 41.33145 28.78550 2529 ft 203 kts 28°
2026-05-06 13:04 41.34418 28.79525 2859 ft 220 kts 27°
2026-05-06 13:05 41.35808 28.80588 3184 ft 242 kts 27°
2026-05-06 13:05 41.37315 28.81799 3555 ft 262 kts 35°
2026-05-06 13:05 41.38348 28.83815 4078 ft 274 kts 73°
2026-05-06 13:05 41.38633 28.86342 5003 ft 279 kts 84°
2026-05-06 13:06 41.38676 28.88901 5896 ft 282 kts 90°
2026-05-06 13:06 41.38187 28.91439 6749 ft 290 kts 118°
2026-05-06 13:06 41.36864 28.93471 7557 ft 297 kts 143°
2026-05-06 13:06 41.34986 28.94605 8350 ft 300 kts 171°
2026-05-06 13:07 41.32895 28.94789 9141 ft 303 kts 180°
2026-05-06 13:07 41.30770 28.94836 9928 ft 308 kts 180°
2026-05-06 13:07 41.28586 28.94865 10372 ft 324 kts 180°
2026-05-06 13:07 41.26255 28.94888 10605 ft 345 kts 180°
2026-05-06 13:08 41.23852 28.94847 11137 ft 353 kts 183°
2026-05-06 13:08 41.21383 28.94669 11840 ft 357 kts 185°
2026-05-06 13:08 41.18894 28.94418 12528 ft 360 kts 185°
2026-05-06 13:08 41.16384 28.94138 13224 ft 363 kts 186°
2026-05-06 13:09 41.13853 28.93854 13931 ft 367 kts 186°
2026-05-06 13:09 41.11299 28.93580 14538 ft 370 kts 186°
2026-05-06 13:09 41.08722 28.93319 15123 ft 373 kts 185°
2026-05-06 13:09 41.06117 28.93068 15718 ft 377 kts 185°
2026-05-06 13:10 41.03489 28.92823 16307 ft 380 kts 185°
2026-05-06 13:10 41.00841 28.92574 16895 ft 384 kts 185°
2026-05-06 13:10 40.98204 28.92281 17458 ft 387 kts 186°
2026-05-06 13:10 40.95504 28.91942 18038 ft 391 kts 187°
2026-05-06 13:11 40.92785 28.91583 18588 ft 395 kts 187°
2026-05-06 13:11 40.90040 28.91221 19114 ft 398 kts 187°
2026-05-06 13:11 40.87264 28.90943 19651 ft 402 kts 181°
2026-05-06 13:11 40.84459 28.91109 20185 ft 406 kts 177°
2026-05-06 13:12 40.81629 28.91337 20726 ft 409 kts 177°
2026-05-06 13:12 40.78780 28.91569 21230 ft 412 kts 178°
2026-05-06 13:12 40.75908 28.91805 21741 ft 415 kts 178°
2026-05-06 13:12 40.73052 28.92042 22225 ft 418 kts 178°
2026-05-06 13:13 40.70137 28.92280 22731 ft 421 kts 178°
2026-05-06 13:13 40.67202 28.92517 23242 ft 425 kts 178°
2026-05-06 13:13 40.64241 28.92756 23728 ft 428 kts 178°
2026-05-06 13:13 40.61260 28.92997 24137 ft 431 kts 178°
2026-05-06 13:14 40.58262 28.93342 24547 ft 435 kts 172°
2026-05-06 13:14 40.55308 28.94275 24949 ft 439 kts 162°
2026-05-06 13:14 40.52493 28.95869 25332 ft 443 kts 151°
2026-05-06 13:14 40.49875 28.98018 25738 ft 445 kts 146°
2026-05-06 13:15 40.47316 29.00221 26127 ft 447 kts 147°
2026-05-06 13:15 40.44704 29.02454 26497 ft 449 kts 147°
2026-05-06 13:15 40.42072 29.04694 26876 ft 452 kts 147°
2026-05-06 13:15 40.39427 29.06939 27238 ft 454 kts 147°
2026-05-06 13:16 40.36761 29.09200 27575 ft 458 kts 147°
2026-05-06 13:16 40.34076 29.11475 27893 ft 461 kts 147°
2026-05-06 13:16 40.31372 29.13766 28234 ft 464 kts 147°
2026-05-06 13:16 40.28654 29.16071 28588 ft 467 kts 147°
2026-05-06 13:17 40.25953 29.18361 28951 ft 470 kts 147°
2026-05-06 13:17 40.23196 29.20689 29302 ft 473 kts 147°
2026-05-06 13:17 40.20424 29.23020 29647 ft 475 kts 148°
2026-05-06 13:17 40.17497 29.25041 30000 ft 477 kts 158°
2026-05-06 13:18 40.14393 29.26576 30372 ft 477 kts 161°
2026-05-06 13:18 40.11261 29.28053 30652 ft 480 kts 161°
2026-05-06 13:18 40.08108 29.29546 30911 ft 483 kts 161°
2026-05-06 13:18 40.04946 29.31050 31273 ft 483 kts 161°
2026-05-06 13:19 40.01793 29.32553 31677 ft 483 kts 161°
2026-05-06 13:19 39.98682 29.34034 32052 ft 482 kts 161°
2026-05-06 13:19 39.95531 29.35532 32432 ft 483 kts 161°
2026-05-06 13:19 39.92376 29.37029 32796 ft 482 kts 161°
2026-05-06 13:20 39.89225 29.38546 33173 ft 483 kts 160°
2026-05-06 13:20 39.86108 29.40163 33563 ft 483 kts 159°
2026-05-06 13:20 39.83016 29.41866 33958 ft 483 kts 158°
2026-05-06 13:20 39.79940 29.43612 34301 ft 482 kts 157°
2026-05-06 13:21 39.76868 29.45373 34635 ft 482 kts 157°
2026-05-06 13:21 39.73805 29.47111 34966 ft 481 kts 158°
2026-05-06 13:21 39.70732 29.48826 35296 ft 479 kts 158°
2026-05-06 13:21 39.67665 29.50510 35603 ft 478 kts 158°
2026-05-06 13:22 39.64599 29.52177 35910 ft 478 kts 159°
2026-05-06 13:22 39.61527 29.53807 36212 ft 477 kts 160°
2026-05-06 13:22 39.58483 29.55349 36532 ft 475 kts 161°
2026-05-06 13:22 39.55405 29.56862 36857 ft 473 kts 161°
2026-05-06 13:23 39.52324 29.58358 37038 ft 473 kts 161°
2026-05-06 13:23 39.46157 29.61371 37066 ft 474 kts 161°
2026-05-06 13:24 39.40005 29.64427 37070 ft 474 kts 161°
2026-05-06 13:24 39.33851 29.67496 37073 ft 474 kts 161°
2026-05-06 13:25 39.27747 29.70530 37069 ft 475 kts 161°
2026-05-06 13:25 39.21565 29.73595 37071 ft 475 kts 161°
2026-05-06 13:26 39.15396 29.76633 37070 ft 475 kts 161°
2026-05-06 13:26 39.09215 29.79671 37070 ft 476 kts 161°
2026-05-06 13:27 39.03030 29.82712 37076 ft 476 kts 161°
2026-05-06 13:27 38.96846 29.85756 37072 ft 476 kts 161°
2026-05-06 13:28 38.90702 29.88780 37080 ft 476 kts 161°
2026-05-06 13:28 38.84507 29.91788 37084 ft 476 kts 162°
2026-05-06 13:29 38.78292 29.94720 37092 ft 476 kts 162°
2026-05-06 13:29 38.72070 29.97652 37091 ft 476 kts 162°
2026-05-06 13:30 38.65855 30.00598 37105 ft 477 kts 162°
2026-05-06 13:30 38.59678 30.03522 37099 ft 477 kts 162°
2026-05-06 13:31 38.53454 30.06459 37101 ft 476 kts 162°
2026-05-06 13:31 38.47237 30.09392 37097 ft 477 kts 162°
2026-05-06 13:32 38.41017 30.12311 37111 ft 476 kts 162°
2026-05-06 13:32 38.34797 30.15234 37113 ft 476 kts 162°
2026-05-06 13:33 38.28618 30.18119 37104 ft 476 kts 162°
2026-05-06 13:33 38.22378 30.20962 37111 ft 476 kts 163°
2026-05-06 13:34 38.16138 30.23806 37108 ft 476 kts 162°
2026-05-06 13:34 38.09905 30.26672 37107 ft 476 kts 162°
2026-05-06 13:35 38.03671 30.29531 37099 ft 476 kts 162°
2026-05-06 13:35 37.97477 30.32356 37107 ft 476 kts 162°
2026-05-06 13:36 37.91246 30.35184 37125 ft 476 kts 163°
2026-05-06 13:36 37.85008 30.38002 37126 ft 476 kts 163°
2026-05-06 13:37 37.78783 30.40814 37117 ft 475 kts 163°
2026-05-06 13:37 37.72562 30.43619 37128 ft 474 kts 163°
2026-05-06 13:38 37.66394 30.46394 37123 ft 473 kts 163°
2026-05-06 13:38 37.60194 30.49174 37110 ft 473 kts 163°
2026-05-06 13:39 37.53997 30.51947 37086 ft 473 kts 163°
2026-05-06 13:39 37.47797 30.54719 37087 ft 473 kts 163°
2026-05-06 13:40 37.41593 30.57503 37090 ft 474 kts 163°
2026-05-06 13:40 37.35427 30.60255 37093 ft 473 kts 163°
2026-05-06 13:41 37.29213 30.63013 37080 ft 474 kts 164°
2026-05-06 13:41 37.22996 30.65772 37083 ft 474 kts 164°
2026-05-06 13:42 37.16783 30.68535 37079 ft 474 kts 164°
2026-05-06 13:42 37.10565 30.71286 37058 ft 474 kts 164°
2026-05-06 13:43 37.04386 30.74013 37058 ft 474 kts 164°
2026-05-06 13:43 36.98165 30.76758 37063 ft 474 kts 164°
2026-05-06 13:44 36.91871 30.79151 37061 ft 469 kts 175°
2026-05-06 13:44 36.85423 30.79658 37059 ft 464 kts 184°
2026-05-06 13:45 36.78959 30.79880 37053 ft 466 kts 183°
2026-05-06 13:45 36.69291 30.80235 37061 ft 466 kts 184°
2026-05-06 13:46 36.62800 30.80459 37059 ft 467 kts 184°
2026-05-06 13:46 36.56297 30.80687 37062 ft 468 kts 184°
2026-05-06 13:47 36.49791 30.80911 37069 ft 468 kts 184°
2026-05-06 13:47 36.43325 30.81130 37069 ft 467 kts 184°
2026-05-06 13:48 36.36824 30.81354 37067 ft 467 kts 183°
2026-05-06 13:48 36.30321 30.81576 37068 ft 467 kts 184°
2026-05-06 13:49 36.23819 30.81790 37072 ft 468 kts 184°
2026-05-06 13:49 36.17317 30.82008 37056 ft 467 kts 184°
2026-05-06 13:50 36.10863 30.82218 37079 ft 467 kts 183°
2026-05-06 13:50 36.04369 30.82439 37079 ft 467 kts 183°
2026-05-06 13:51 35.97866 30.82746 37075 ft 467 kts 182°
2026-05-06 13:51 35.91374 30.83176 37083 ft 467 kts 182°
2026-05-06 13:52 35.84932 30.83600 37081 ft 466 kts 182°
2026-05-06 13:52 35.78456 30.84001 37055 ft 466 kts 182°
2026-05-06 13:53 35.71988 30.84379 37065 ft 465 kts 182°
2026-05-06 13:53 35.65518 30.84765 37070 ft 465 kts 182°
2026-05-06 13:54 35.59050 30.85144 37073 ft 465 kts 183°
2026-05-06 13:54 35.52637 30.85367 37066 ft 464 kts 184°
2026-05-06 13:55 35.46189 30.85538 37074 ft 463 kts 184°
2026-05-06 13:55 35.39742 30.85720 37078 ft 464 kts 184°
2026-05-06 13:56 35.33292 30.85947 37058 ft 463 kts 184°
2026-05-06 13:56 35.26892 30.86166 37078 ft 463 kts 184°
2026-05-06 13:57 35.20450 30.86376 37077 ft 463 kts 184°
2026-05-06 13:57 35.14010 30.86591 37067 ft 463 kts 184°
2026-05-06 13:58 35.07572 30.86805 37082 ft 462 kts 184°
2026-05-06 13:58 35.01142 30.87025 37084 ft 462 kts 184°
2026-05-06 13:59 34.94762 30.87247 37083 ft 462 kts 184°
2026-05-06 13:59 34.88344 30.87455 37063 ft 461 kts 184°
2026-05-06 14:00 34.81929 30.87663 37075 ft 461 kts 185°
2026-05-06 14:00 34.75511 30.87872 37081 ft 461 kts 185°
2026-05-06 14:01 34.69136 30.88078 37051 ft 461 kts 185°
2026-05-06 14:01 34.62725 30.88293 37078 ft 461 kts 185°
2026-05-06 14:02 34.56318 30.88553 37084 ft 460 kts 184°
2026-05-06 14:02 34.49914 30.88884 37089 ft 461 kts 184°
2026-05-06 14:03 34.43559 30.89219 37066 ft 460 kts 184°
2026-05-06 14:03 34.37166 30.89537 37080 ft 460 kts 184°
2026-05-06 14:04 34.30770 30.89845 37088 ft 460 kts 184°
2026-05-06 14:04 34.24387 30.90149 37094 ft 459 kts 184°
2026-05-06 14:05 34.18036 30.90492 37099 ft 460 kts 184°
2026-05-06 14:05 34.11644 30.90865 37098 ft 460 kts 184°
2026-05-06 14:06 34.05256 30.91224 37095 ft 459 kts 184°
2026-05-06 14:06 33.98870 30.91580 37075 ft 459 kts 184°
2026-05-06 14:07 33.92539 30.91925 37089 ft 458 kts 184°
2026-05-06 14:07 33.86175 30.92169 37098 ft 457 kts 185°
2026-05-06 14:08 33.79815 30.92375 37100 ft 457 kts 185°
2026-05-06 14:08 33.73454 30.92597 37085 ft 457 kts 185°
2026-05-06 14:09 33.67097 30.92837 37096 ft 457 kts 185°
2026-05-06 14:09 33.60743 30.93087 37099 ft 456 kts 185°
2026-05-06 14:10 33.54441 30.93326 37076 ft 456 kts 185°
2026-05-06 14:10 33.48101 30.93559 37090 ft 456 kts 185°
2026-05-06 14:11 33.41764 30.93804 37098 ft 456 kts 185°
2026-05-06 14:11 33.35477 30.94041 37110 ft 455 kts 185°
2026-05-06 14:12 33.29150 30.94275 37092 ft 455 kts 185°
2026-05-06 14:12 33.22821 30.94516 37096 ft 455 kts 185°
2026-05-06 14:13 33.16489 30.94758 37105 ft 455 kts 185°
2026-05-06 14:13 33.10158 30.94997 37103 ft 455 kts 184°
2026-05-06 14:14 33.03861 30.95506 37093 ft 458 kts 180°
2026-05-06 14:14 32.97513 30.96319 37106 ft 459 kts 180°
2026-05-06 14:15 32.91171 30.97130 37107 ft 458 kts 180°
2026-05-06 14:15 32.84831 30.97850 37082 ft 457 kts 181°
2026-05-06 14:16 32.78504 30.98531 37098 ft 457 kts 181°
2026-05-06 14:16 32.72221 30.99212 37106 ft 456 kts 181°
2026-05-06 14:17 32.65895 30.99917 37109 ft 456 kts 180°
2026-05-06 14:17 32.59572 31.00637 37097 ft 456 kts 180°
2026-05-06 14:18 32.53256 31.01331 37109 ft 455 kts 181°
2026-05-06 14:18 32.46989 31.02024 37108 ft 455 kts 181°
2026-05-06 14:19 32.40683 31.02724 37115 ft 455 kts 181°
2026-05-06 14:19 32.34383 31.03420 37108 ft 455 kts 181°
2026-05-06 14:20 32.28084 31.04118 37114 ft 454 kts 181°
2026-05-06 14:20 32.21792 31.04807 37091 ft 454 kts 181°
2026-05-06 14:21 32.18691 31.05146 36835 ft 453 kts 181°
2026-05-06 14:21 32.15555 31.05489 36579 ft 453 kts 181°
2026-05-06 14:21 32.12420 31.05837 36299 ft 453 kts 180°
2026-05-06 14:21 32.09291 31.06185 36047 ft 451 kts 180°
2026-05-06 14:22 32.06176 31.06533 35798 ft 449 kts 180°
2026-05-06 14:22 32.03071 31.06879 35552 ft 447 kts 180°
2026-05-06 14:22 31.99978 31.07217 35307 ft 445 kts 180°
2026-05-06 14:22 31.96898 31.07545 35064 ft 444 kts 181°
2026-05-06 14:23 31.93830 31.07869 34821 ft 442 kts 181°
2026-05-06 14:23 31.90815 31.08185 34587 ft 440 kts 180°
2026-05-06 14:23 31.87772 31.08509 34345 ft 439 kts 180°
2026-05-06 14:23 31.84740 31.08836 34114 ft 437 kts 180°
2026-05-06 14:24 31.81720 31.09168 33859 ft 435 kts 180°
2026-05-06 14:24 31.78711 31.09571 33580 ft 435 kts 178°
2026-05-06 14:24 31.75722 31.10066 33309 ft 434 kts 177°
2026-05-06 14:24 31.72744 31.10618 33045 ft 432 kts 176°
2026-05-06 14:25 31.69820 31.11181 32783 ft 431 kts 176°
2026-05-06 14:25 31.66871 31.11741 32522 ft 427 kts 176°
2026-05-06 14:25 31.63947 31.12280 32073 ft 424 kts 177°
2026-05-06 14:25 31.61036 31.12800 31623 ft 422 kts 177°
2026-05-06 14:26 31.58140 31.13303 31175 ft 420 kts 177°
2026-05-06 14:26 31.55255 31.13799 30721 ft 418 kts 177°
2026-05-06 14:26 31.52379 31.14292 30276 ft 417 kts 177°
2026-05-06 14:26 31.49516 31.14784 29791 ft 415 kts 177°
2026-05-06 14:27 31.46670 31.15278 29375 ft 412 kts 177°
2026-05-06 14:27 31.43848 31.15770 28951 ft 409 kts 177°
2026-05-06 14:27 31.41042 31.16258 28530 ft 406 kts 177°
2026-05-06 14:27 31.38260 31.16743 28120 ft 403 kts 177°
2026-05-06 14:28 31.35494 31.17224 27727 ft 401 kts 177°
2026-05-06 14:28 31.32780 31.17697 27310 ft 399 kts 177°
2026-05-06 14:28 31.30038 31.18174 26901 ft 398 kts 177°
2026-05-06 14:28 31.27304 31.18648 26484 ft 397 kts 177°
2026-05-06 14:29 31.24576 31.19116 26036 ft 396 kts 177°
2026-05-06 14:29 31.21851 31.19584 25621 ft 395 kts 177°
2026-05-06 14:29 31.19133 31.20054 25175 ft 395 kts 177°
2026-05-06 14:29 31.16412 31.20527 24736 ft 395 kts 177°
2026-05-06 14:30 31.13694 31.20996 24262 ft 395 kts 176°
2026-05-06 14:30 31.10974 31.21465 23818 ft 395 kts 176°
2026-05-06 14:30 31.08273 31.21932 23384 ft 392 kts 176°
2026-05-06 14:30 31.05578 31.22398 23000 ft 388 kts 176°
2026-05-06 14:31 31.02905 31.22860 22448 ft 388 kts 176°
2026-05-06 14:31 31.00294 31.23311 22054 ft 384 kts 176°
2026-05-06 14:31 30.97647 31.23767 21633 ft 381 kts 176°
2026-05-06 14:31 30.95046 31.24216 21219 ft 377 kts 176°
2026-05-06 14:32 30.92455 31.24658 20729 ft 375 kts 176°
2026-05-06 14:32 30.89890 31.25095 20316 ft 372 kts 176°
2026-05-06 14:32 30.87332 31.25532 19859 ft 370 kts 176°
2026-05-06 14:32 30.84800 31.25969 19437 ft 368 kts 175°
2026-05-06 14:33 30.82272 31.26405 19009 ft 366 kts 175°
2026-05-06 14:33 30.79792 31.26828 18593 ft 364 kts 175°
2026-05-06 14:33 30.77295 31.27255 18109 ft 360 kts 175°
2026-05-06 14:33 30.74826 31.27676 17475 ft 357 kts 175°
2026-05-06 14:34 30.72400 31.28092 17035 ft 348 kts 175°
2026-05-06 14:34 30.70032 31.28499 16627 ft 340 kts 175°
2026-05-06 14:34 30.67719 31.28897 16209 ft 333 kts 175°
2026-05-06 14:34 30.65450 31.29289 15823 ft 326 kts 175°
2026-05-06 14:35 30.63225 31.29672 15424 ft 320 kts 175°
2026-05-06 14:35 30.61042 31.30047 15050 ft 315 kts 175°
2026-05-06 14:35 30.58922 31.30412 14674 ft 310 kts 175°
2026-05-06 14:35 30.56802 31.30754 14307 ft 305 kts 180°
2026-05-06 14:36 30.54701 31.30460 13952 ft 306 kts 201°
2026-05-06 14:36 30.52694 31.29625 13557 ft 307 kts 205°
2026-05-06 14:36 30.50701 31.28726 13099 ft 308 kts 205°
2026-05-06 14:36 30.48702 31.27808 12641 ft 309 kts 205°
2026-05-06 14:37 30.46700 31.26878 12194 ft 311 kts 205°
2026-05-06 14:37 30.44694 31.25937 11747 ft 311 kts 205°
2026-05-06 14:37 30.42712 31.24999 11317 ft 312 kts 205°
2026-05-06 14:37 30.40704 31.24037 10876 ft 313 kts 205°
2026-05-06 14:38 30.38693 31.23065 10447 ft 313 kts 205°
2026-05-06 14:38 30.36683 31.22087 10031 ft 313 kts 205°
2026-05-06 14:38 30.34706 31.21122 9566 ft 303 kts 205°
2026-05-06 14:38 30.32796 31.20187 9102 ft 294 kts 205°
2026-05-06 14:39 30.30931 31.19268 8652 ft 290 kts 205°
2026-05-06 14:39 30.29078 31.18361 8222 ft 289 kts 205°
2026-05-06 14:39 30.27231 31.17455 7787 ft 287 kts 205°
2026-05-06 14:39 30.25415 31.16569 7350 ft 286 kts 205°
2026-05-06 14:40 30.23591 31.15661 6924 ft 285 kts 205°
2026-05-06 14:40 30.21779 31.14748 6502 ft 283 kts 204°
2026-05-06 14:40 30.19982 31.13834 6048 ft 281 kts 205°
2026-05-06 14:40 30.18194 31.12917 5589 ft 281 kts 205°
2026-05-06 14:41 30.16411 31.12010 5153 ft 279 kts 205°
2026-05-06 14:41 30.14638 31.11110 4718 ft 277 kts 205°
2026-05-06 14:41 30.12796 31.10562 4498 ft 276 kts 180°
2026-05-06 14:41 30.10951 31.10985 4323 ft 266 kts 158°
2026-05-06 14:42 30.09278 31.11777 3971 ft 262 kts 155°
2026-05-06 14:42 30.07633 31.12609 3554 ft 256 kts 155°
2026-05-06 14:42 30.06023 31.13435 3110 ft 250 kts 155°
2026-05-06 14:42 30.04465 31.14242 2796 ft 239 kts 155°
2026-05-06 14:43 30.02966 31.15018 2575 ft 234 kts 155°
2026-05-06 14:43 30.01536 31.15886 2508 ft 231 kts 137°
2026-05-06 14:43 30.00650 31.17371 2509 ft 225 kts 102°
2026-05-06 14:43 30.00471 31.19144 2509 ft 223 kts 88°
2026-05-06 14:44 30.00489 31.20932 2509 ft 223 kts 86°
2026-05-06 14:44 30.00531 31.22714 2507 ft 219 kts 85°
2026-05-06 14:44 30.00562 31.24367 2505 ft 197 kts 85°
2026-05-06 14:45 30.00604 31.27259 2508 ft 171 kts 84°
2026-05-06 14:45 30.00620 31.28623 2501 ft 169 kts 84°
2026-05-06 14:45 30.00832 31.29921 2504 ft 162 kts 60°
2026-05-06 14:45 30.01483 31.30967 2500 ft 161 kts 45°
2026-05-06 14:46 30.02225 31.31947 2510 ft 163 kts 46°
2026-05-06 14:46 30.02969 31.32933 2404 ft 164 kts 46°
2026-05-06 14:46 30.03716 31.33925 2229 ft 163 kts 46°
2026-05-06 14:46 30.04455 31.34906 2029 ft 161 kts 46°
2026-05-06 14:47 30.05163 31.35850 1838 ft 150 kts 46°
2026-05-06 14:47 30.05818 31.36721 1642 ft 138 kts 46°
2026-05-06 14:47 30.06438 31.37546 1458 ft 134 kts 45°
2026-05-06 14:47 30.07051 31.38362 1287 ft 134 kts 45°
2026-05-06 14:48 30.07658 31.39177 1085 ft 133 kts 45°
2026-05-06 14:48 30.08264 31.39984 896 ft 135 kts 46°
2026-05-06 14:48 30.08868 31.40823 754 ft 136 kts 44°
2026-05-06 14:48 30.09492 31.41635 538 ft 134 kts 42°
2026-05-06 14:49 30.10120 31.42436 406 ft 134 kts 44°
2026-05-06 14:49 30.10682 31.43182 374 ft 107 kts 48°
2026-05-06 14:49 30.11054 31.43683 374 ft 57 kts 49°
2026-05-06 14:49 30.11241 31.43901 374 ft 32 kts 40°
2026-05-06 14:50 30.11430 31.44037 374 ft 33 kts 25°
2026-05-06 14:50 30.11539 31.44085 374 ft 0 kts 19°
2026-05-06 14:50 30.11545 31.44084 374 ft 2 kts 353°
2026-05-06 14:50 30.11552 31.44074 374 ft 2 kts 281°
2026-05-06 14:51 30.11538 31.44025 374 ft 10 kts 231°
2026-05-06 14:51 30.11481 31.43959 374 ft 13 kts 227°
2026-05-06 14:51 30.11418 31.43871 374 ft 15 kts 232°
2026-05-06 14:51 30.11344 31.43770 374 ft 18 kts 229°
2026-05-06 14:52 30.11255 31.43655 374 ft 21 kts 224°
2026-05-06 14:52 30.11181 31.43545 374 ft 16 kts 253°
2026-05-06 14:52 30.11232 31.43429 374 ft 18 kts 316°
2026-05-06 14:52 30.11339 31.43331 374 ft 21 kts 321°
2026-05-06 14:53 30.11455 31.43218 374 ft 23 kts 320°
2026-05-06 14:53 30.11582 31.43093 374 ft 25 kts 319°
2026-05-06 14:53 30.11718 31.42957 374 ft 27 kts 319°
2026-05-06 14:53 30.11863 31.42814 374 ft 28 kts 318°
2026-05-06 14:54 30.12013 31.42660 375 ft 24 kts 319°
2026-05-06 14:54 30.12142 31.42529 374 ft 23 kts 318°
2026-05-06 14:54 30.12194 31.42401 375 ft 19 kts 251°
2026-05-06 14:54 30.12106 31.42273 375 ft 22 kts 228°
2026-05-06 14:55 30.12002 31.42130 375 ft 25 kts 231°
2026-05-06 14:55 30.11882 31.41980 375 ft 27 kts 231°
2026-05-06 14:55 30.11757 31.41805 375 ft 29 kts 230°
2026-05-06 14:55 30.11619 31.41619 375 ft 32 kts 227°
2026-05-06 14:56 30.11465 31.41426 375 ft 34 kts 227°
2026-05-06 14:56 30.11333 31.41245 375 ft 30 kts 232°
2026-05-06 14:56 30.11194 31.41058 375 ft 32 kts 229°
2026-05-06 14:56 30.11070 31.40872 375 ft 24 kts 258°
2026-05-06 14:57 30.11089 31.40687 375 ft 24 kts 299°
2026-05-06 14:57 30.11171 31.40534 374 ft 19 kts 281°
2026-05-06 14:57 30.11163 31.40420 374 ft 9 kts 249°
2026-05-06 14:57 30.11158 31.40407 374 ft 0 kts 248°